• In Uzbekistan
  • List of Countries
  • For 7 days
  • Water Temperature
  • Satellite Maps
  • Weather Map
  • Weather Widgets
  • user-avatar
    Login

    Hourly Weather Bamenda

    Today, 19 January, Friday

    Time Temperature Precipitation Wind Pressure Humidity
    00:00 +19°C° 0 mm 1 mps 641 mmHg 36%
    01:00 +18°C° 0 mm 1 mps 641 mmHg 40%
    02:00 +18°C° 0 mm 1 mps 641 mmHg 39%
    03:00 +18°C° 0 mm 1 mps 640 mmHg 38%
    04:00 +16°C° 0 mm 1 mps 640 mmHg 38%
    05:00 +16°C° 0 mm 1 mps 640 mmHg 36%
    06:00 +16°C° 0 mm 1 mps 641 mmHg 35%
    07:00 +16°C° 0 mm 1 mps 641 mmHg 33%
    08:00 +21°C° 0 mm 1 mps 642 mmHg 28%
    09:00 +24°C° 0 mm 1 mps 643 mmHg 23%
    10:00 +27°C° 0 mm 1 mps 645 mmHg 18%
    11:00 +29°C° 0 mm 1 mps 644 mmHg 16%
    12:00 +30°C° 0 mm 1 mps 644 mmHg 15%
    13:00 +31°C° 0 mm 1 mps 644 mmHg 14%
    14:00 +31°C° 0 mm 2 mps 643 mmHg 14%
    15:00 +31°C° 0 mm 2 mps 643 mmHg 14%
    16:00 +30°C° 0 mm 2 mps 642 mmHg 14%
    17:00 +28°C° 0 mm 1 mps 641 mmHg 18%
    18:00 +25°C° 0 mm 1 mps 641 mmHg 22%
    19:00 +23°C° 0 mm 1 mps 640 mmHg 25%
    20:00 +22°C° 0 mm 1 mps 641 mmHg 27%
    21:00 +21°C° 0 mm 1 mps 641 mmHg 28%
    22:00 +20°C° 0 mm 1 mps 641 mmHg 30%
    23:00 +20°C° 0 mm 1 mps 641 mmHg 30%

    Tomorrow, 20 January, Saturday

    Time Temperature Precipitation Wind Pressure Humidity
    00:00 +19°C° 0 mm 1 mps 641 mmHg 30%
    01:00 +18°C° 0 mm 1 mps 641 mmHg 29%
    02:00 +18°C° 0 mm 1 mps 640 mmHg 27%
    03:00 +18°C° 0 mm 1 mps 640 mmHg 25%
    04:00 +18°C° 0 mm 1 mps 640 mmHg 22%
    05:00 +16°C° 0 mm 1 mps 640 mmHg 22%
    06:00 +16°C° 0 mm 1 mps 640 mmHg 21%
    07:00 +16°C° 0 mm 1 mps 640 mmHg 20%
    08:00 +20°C° 0 mm 1 mps 642 mmHg 18%
    09:00 +24°C° 0 mm 1 mps 643 mmHg 15%
    10:00 +27°C° 0 mm 2 mps 644 mmHg 12%
    11:00 +29°C° 0 mm 1 mps 644 mmHg 12%
    12:00 +30°C° 0 mm 1 mps 644 mmHg 12%
    13:00 +32°C° 0 mm 1 mps 644 mmHg 11%
    14:00 +31°C° 0 mm 2 mps 643 mmHg 12%
    15:00 +31°C° 0 mm 2 mps 642 mmHg 12%
    16:00 +31°C° 0 mm 2 mps 641 mmHg 12%
    17:00 +28°C° 0 mm 2 mps 641 mmHg 16%
    18:00 +25°C° 0 mm 1 mps 640 mmHg 19%
    19:00 +23°C° 0 mm 1 mps 640 mmHg 22%
    20:00 +22°C° 0 mm 1 mps 640 mmHg 23%
    21:00 +21°C° 0 mm 1 mps 641 mmHg 24%
    22:00 +20°C° 0 mm 1 mps 641 mmHg 24%
    23:00 +19°C° 0 mm 1 mps 641 mmHg 23%

    Day after tomorrow, 21 January, Sunday

    Time Temperature Precipitation Wind Pressure Humidity
    00:00 +19°C° 0 mm 1 mps 641 mmHg 22%
    01:00 +19°C° 0 mm 1 mps 641 mmHg 21%
    02:00 +18°C° 0 mm 1 mps 640 mmHg 20%
    03:00 +18°C° 0 mm 1 mps 640 mmHg 19%
    04:00 +18°C° 0 mm 1 mps 640 mmHg 17%
    05:00 +18°C° 0 mm 1 mps 640 mmHg 18%
    06:00 +18°C° 0 mm 1 mps 640 mmHg 18%
    07:00 +16°C° 0 mm 1 mps 641 mmHg 19%
    08:00 +21°C° 0 mm 1 mps 642 mmHg 17%
    09:00 +24°C° 0 mm 1 mps 644 mmHg 15%
    10:00 +27°C° 0 mm 2 mps 645 mmHg 13%
    11:00 +29°C° 0 mm 2 mps 645 mmHg 12%
    12:00 +30°C° 0 mm 1 mps 644 mmHg 12%
    13:00 +32°C° 0 mm 1 mps 644 mmHg 12%
    14:00 +32°C° 0 mm 2 mps 643 mmHg 12%
    15:00 +31°C° 0 mm 2 mps 642 mmHg 12%
    16:00 +31°C° 0 mm 2 mps 642 mmHg 12%
    17:00 +28°C° 0 mm 1 mps 641 mmHg 15%
    18:00 +26°C° 0 mm 1 mps 641 mmHg 18%
    19:00 +23°C° 0 mm 1 mps 640 mmHg 21%
    20:00 +22°C° 0 mm 1 mps 641 mmHg 22%
    21:00 +21°C° 0 mm 1 mps 641 mmHg 23%
    22:00 +20°C° 0 mm 1 mps 641 mmHg 24%
    23:00 +20°C° 0 mm 1 mps 641 mmHg 23%

    22 January, Monday

    Time Temperature Precipitation Wind Pressure Humidity
    00:00 +19°C° 0 mm 1 mps 641 mmHg 22%
    01:00 +19°C° 0 mm 1 mps 640 mmHg 21%
    02:00 +19°C° 0 mm 1 mps 640 mmHg 20%
    03:00 +18°C° 0 mm 1 mps 640 mmHg 20%
    04:00 +18°C° 0 mm 1 mps 639 mmHg 19%
    05:00 +18°C° 0 mm 1 mps 640 mmHg 20%
    06:00 +18°C° 0 mm 1 mps 640 mmHg 21%
    07:00 +18°C° 0 mm 1 mps 641 mmHg 22%
    08:00 +21°C° 0 mm 1 mps 642 mmHg 19%
    09:00 +24°C° 0 mm 1 mps 644 mmHg 17%
    10:00 +28°C° 0 mm 1 mps 645 mmHg 14%
    11:00 +29°C° 0 mm 1 mps 645 mmHg 14%
    12:00 +31°C° 0 mm 1 mps 644 mmHg 13%
    13:00 +32°C° 0 mm 2 mps 644 mmHg 12%
    14:00 +32°C° 0 mm 2 mps 643 mmHg 12%
    15:00 +31°C° 0 mm 2 mps 642 mmHg 12%
    16:00 +31°C° 0 mm 2 mps 641 mmHg 13%
    17:00 +28°C° 0 mm 2 mps 641 mmHg 16%
    18:00 +26°C° 0 mm 1 mps 641 mmHg 19%
    19:00 +23°C° 0 mm 1 mps 640 mmHg 22%
    20:00 +22°C° 0 mm 1 mps 641 mmHg 23%
    21:00 +21°C° 0 mm 1 mps 641 mmHg 24%
    22:00 +20°C° 0 mm 1 mps 641 mmHg 25%
    23:00 +20°C° 0 mm 1 mps 641 mmHg 24%

    23 January, Tuesday

    Time Temperature Precipitation Wind Pressure Humidity
    00:00 +19°C° 0 mm 1 mps 641 mmHg 23%
    01:00 +19°C° 0 mm 1 mps 640 mmHg 22%
    02:00 +18°C° 0 mm 1 mps 640 mmHg 22%
    03:00 +18°C° 0 mm 1 mps 640 mmHg 21%
    04:00 +18°C° 0 mm 1 mps 639 mmHg 21%
    05:00 +16°C° 0 mm 1 mps 640 mmHg 22%
    06:00 +16°C° 0 mm 1 mps 640 mmHg 23%
    07:00 +16°C° 0 mm 1 mps 640 mmHg 24%
    08:00 +20°C° 0 mm 1 mps 642 mmHg 21%
    09:00 +24°C° 0 mm 1 mps 643 mmHg 18%
    10:00 +27°C° 0 mm 1 mps 644 mmHg 15%
    11:00 +28°C° 0 mm 1 mps 644 mmHg 15%
    12:00 +30°C° 0 mm 2 mps 643 mmHg 14%
    13:00 +31°C° 0 mm 2 mps 643 mmHg 13%
    14:00 +31°C° 0 mm 2 mps 642 mmHg 13%
    15:00 +31°C° 0 mm 2 mps 642 mmHg 14%
    16:00 +31°C° 0 mm 2 mps 641 mmHg 14%
    17:00 +28°C° 0 mm 2 mps 641 mmHg 17%
    18:00 +26°C° 0 mm 1 mps 640 mmHg 20%
    19:00 +23°C° 0 mm 1 mps 640 mmHg 23%
    20:00 +22°C° 0 mm 1 mps 640 mmHg 24%
    21:00 +21°C° 0 mm 1 mps 640 mmHg 25%
    22:00 +20°C° 0 mm 1 mps 641 mmHg 26%
    23:00 +20°C° 0 mm 1 mps 640 mmHg 26%

    24 January, Wednesday

    Time Temperature Precipitation Wind Pressure Humidity
    00:00 +19°C° 0 mm 1 mps 640 mmHg 25%
    01:00 +19°C° 0 mm 1 mps 640 mmHg 24%
    02:00 +18°C° 0 mm 1 mps 640 mmHg 23%
    03:00 +18°C° 0 mm 1 mps 639 mmHg 23%
    04:00 +18°C° 0 mm 1 mps 639 mmHg 22%
    05:00 +16°C° 0 mm 1 mps 639 mmHg 23%
    06:00 +16°C° 0 mm 1 mps 640 mmHg 24%
    07:00 +16°C° 0 mm 1 mps 640 mmHg 24%
    08:00 +20°C° 0 mm 1 mps 641 mmHg 21%
    09:00 +24°C° 0 mm 1 mps 643 mmHg 18%
    10:00 +28°C° 0 mm 1 mps 644 mmHg 15%
    11:00 +29°C° 0 mm 1 mps 644 mmHg 14%
    12:00 +30°C° 0 mm 1 mps 643 mmHg 13%
    13:00 +32°C° 0 mm 2 mps 643 mmHg 12%
    14:00 +32°C° 0 mm 2 mps 642 mmHg 12%
    15:00 +31°C° 0 mm 2 mps 642 mmHg 13%
    16:00 +31°C° 0 mm 2 mps 641 mmHg 13%
    17:00 +28°C° 0 mm 2 mps 641 mmHg 16%
    18:00 +26°C° 0 mm 1 mps 640 mmHg 19%
    19:00 +23°C° 0 mm 1 mps 640 mmHg 23%
    20:00 +22°C° 0 mm 1 mps 640 mmHg 24%
    21:00 +21°C° 0 mm 1 mps 640 mmHg 26%
    22:00 +20°C° 0 mm 1 mps 640 mmHg 28%
    23:00 +20°C° 0 mm 1 mps 640 mmHg 26%
    Show more